TimeEDT,TemperatureF,Dew PointF,Humidity,Sea Level PressureIn,VisibilityMPH,Wind Direction,Wind SpeedMPH,Gust SpeedMPH,PrecipitationIn,Events,Conditions,WindDirDegrees,DateUTC
12:12 AM,41.0,41.0,100,29.57,3.0,Calm,Calm,-,N/A,,Mostly Cloudy,0,2012-10-20 04:12:00
12:32 AM,41.7,41.7,100,29.57,2.5,Calm,Calm,-,N/A,,Overcast,0,2012-10-20 04:32:00
12:53 AM,42.6,42.6,100,29.57,5.0,Calm,Calm,-,N/A,,Overcast,0,2012-10-20 04:53:00
1:13 AM,43.7,43.7,100,29.57,5.0,Calm,Calm,-,N/A,,Overcast,0,2012-10-20 05:13:00
1:33 AM,43.3,43.2,99,29.58,5.0,Calm,Calm,-,N/A,,Overcast,0,2012-10-20 05:33:00
1:53 AM,42.8,42.8,100,29.58,4.0,Calm,Calm,-,N/A,,Overcast,0,2012-10-20 05:53:00
2:13 AM,43.7,43.7,100,29.58,3.0,Calm,Calm,-,N/A,,Overcast,0,2012-10-20 06:13:00
2:34 AM,43.7,43.7,100,29.58,5.0,Calm,Calm,-,N/A,,Overcast,0,2012-10-20 06:34:00
2:54 AM,44.6,44.1,98,29.58,5.0,Calm,Calm,-,N/A,,Overcast,0,2012-10-20 06:54:00
3:14 AM,44.8,44.1,97,29.58,1.0,Calm,Calm,-,N/A,,Overcast,0,2012-10-20 07:14:00
3:34 AM,44.2,44.2,100,29.58,0.2,Calm,Calm,-,N/A,Fog,Fog,0,2012-10-20 07:34:00
3:54 AM,44.6,44.6,100,29.59,0.2,Calm,Calm,-,N/A,Fog,Fog,0,2012-10-20 07:54:00
4:14 AM,44.6,44.6,100,29.59,0.5,Calm,Calm,-,N/A,Fog,Fog,0,2012-10-20 08:14:00
4:34 AM,43.7,43.7,100,29.59,1.2,NNW,3.5,-,N/A,,Overcast,330,2012-10-20 08:34:00
4:54 AM,43.7,43.7,100,29.59,1.2,Calm,Calm,-,N/A,Rain,Rain,0,2012-10-20 08:54:00
5:15 AM,43.7,43.7,100,29.60,1.2,Calm,Calm,-,N/A,,Overcast,0,2012-10-20 09:15:00
5:35 AM,43.7,43.7,100,29.60,1.2,Calm,Calm,-,N/A,,Overcast,0,2012-10-20 09:35:00
5:50 AM,44.1,44.1,100,29.60,1.0,Calm,Calm,-,N/A,,Overcast,0,2012-10-20 09:50:00
6:10 AM,44.8,44.8,100,29.60,3.0,Calm,Calm,-,N/A,Rain,Light Rain,0,2012-10-20 10:10:00
6:30 AM,44.8,44.8,100,29.60,4.0,Calm,Calm,-,N/A,Rain,Light Rain,0,2012-10-20 10:30:00
6:50 AM,44.8,44.8,100,29.61,5.0,NNW,4.6,-,N/A,,Overcast,330,2012-10-20 10:50:00
7:10 AM,44.8,44.8,100,29.61,5.0,NNW,3.5,-,N/A,,Overcast,330,2012-10-20 11:10:00
7:30 AM,44.8,44.8,100,29.62,7.0,North,3.5,-,N/A,,Overcast,350,2012-10-20 11:30:00
7:51 AM,44.8,44.8,100,29.62,5.0,NNW,3.5,-,N/A,,Overcast,330,2012-10-20 11:51:00
8:11 AM,44.8,44.8,100,29.63,5.0,NW,3.5,-,N/A,,Overcast,310,2012-10-20 12:11:00
8:31 AM,44.8,44.8,100,29.63,5.0,Calm,Calm,-,N/A,Rain,Light Rain,0,2012-10-20 12:31:00
8:51 AM,45.9,45.9,100,29.64,4.0,Calm,Calm,-,N/A,Rain,Rain,0,2012-10-20 12:51:00
9:11 AM,47.3,47.3,100,29.64,7.0,Calm,Calm,-,N/A,,Overcast,0,2012-10-20 13:11:00
9:31 AM,47.3,47.3,100,29.65,7.0,NW,3.5,-,N/A,,Overcast,310,2012-10-20 13:31:00
9:51 AM,48.9,48.9,100,29.65,10.0,WNW,3.5,-,N/A,,Overcast,290,2012-10-20 13:51:00
10:11 AM,50.0,49.5,98,29.66,10.0,NNW,4.6,-,N/A,,Overcast,330,2012-10-20 14:11:00
10:31 AM,50.0,49.6,99,29.66,10.0,North,5.8,-,N/A,,Overcast,350,2012-10-20 14:31:00
10:51 AM,50.0,49.1,97,29.67,10.0,NNW,8.1,-,N/A,,Overcast,330,2012-10-20 14:51:00
11:12 AM,50.0,48.2,94,29.68,10.0,North,6.9,-,N/A,,Overcast,350,2012-10-20 15:12:00
11:32 AM,50.0,47.5,91,29.68,10.0,NW,5.8,-,N/A,,Overcast,310,2012-10-20 15:32:00
11:52 AM,50.0,47.7,92,29.68,10.0,WNW,5.8,-,N/A,,Overcast,290,2012-10-20 15:52:00
12:12 PM,52.9,48.7,86,29.68,10.0,NNW,5.8,-,N/A,,Mostly Cloudy,340,2012-10-20 16:12:00
12:34 PM,54.9,48.0,78,29.69,10.0,North,5.8,-,N/A,,Mostly Cloudy,350,2012-10-20 16:34:00
12:54 PM,54.5,48.7,81,29.69,10.0,NNW,8.1,-,N/A,,Mostly Cloudy,330,2012-10-20 16:54:00
1:14 PM,54.9,47.7,77,29.69,10.0,NW,8.1,-,N/A,,Mostly Cloudy,310,2012-10-20 17:14:00
1:34 PM,54.9,45.3,70,29.69,10.0,WNW,6.9,-,N/A,,Overcast,290,2012-10-20 17:34:00
1:54 PM,54.9,45.7,71,29.70,10.0,WNW,6.9,-,N/A,,Overcast,290,2012-10-20 17:54:00
2:14 PM,55.2,44.4,67,29.70,10.0,NW,9.2,-,N/A,,Overcast,310,2012-10-20 18:14:00
2:35 PM,54.9,44.4,68,29.71,10.0,NW,9.2,16.1,N/A,,Overcast,320,2012-10-20 18:35:00
2:55 PM,57.0,44.8,64,29.71,10.0,WNW,5.8,-,N/A,,Mostly Cloudy,300,2012-10-20 18:55:00
3:15 PM,56.7,43.0,60,29.71,10.0,NW,10.4,16.1,N/A,,Mostly Cloudy,320,2012-10-20 19:15:00
3:35 PM,57.4,42.1,57,29.72,10.0,WNW,11.5,-,N/A,,Overcast,290,2012-10-20 19:35:00
3:50 PM,56.8,42.6,59,29.72,10.0,WNW,9.2,-,N/A,,Mostly Cloudy,300,2012-10-20 19:50:00
4:10 PM,57.4,43.3,59,29.72,10.0,WNW,5.8,-,N/A,,Mostly Cloudy,290,2012-10-20 20:10:00
4:30 PM,58.5,44.2,59,29.72,10.0,WSW,8.1,-,N/A,,Mostly Cloudy,250,2012-10-20 20:30:00
4:50 PM,58.1,43.2,58,29.73,10.0,WNW,6.9,-,N/A,,Scattered Clouds,300,2012-10-20 20:50:00
5:10 PM,58.1,42.8,57,29.74,10.0,NNW,5.8,-,N/A,,Mostly Cloudy,330,2012-10-20 21:10:00
5:30 PM,57.4,41.4,55,29.75,10.0,NW,9.2,-,N/A,,Scattered Clouds,320,2012-10-20 21:30:00
5:50 PM,54.9,39.7,57,29.75,10.0,NW,6.9,-,N/A,,Clear,310,2012-10-20 21:50:00
6:10 PM,54.9,39.0,55,29.75,10.0,WNW,5.8,-,N/A,,Clear,300,2012-10-20 22:10:00
6:31 PM,52.7,40.8,64,29.76,10.0,WNW,4.6,-,N/A,,Clear,300,2012-10-20 22:31:00
6:51 PM,50.0,40.5,70,29.76,10.0,West,3.5,-,N/A,,Clear,270,2012-10-20 22:51:00
7:11 PM,50.0,42.8,76,29.78,10.0,West,5.8,-,N/A,,Clear,280,2012-10-20 23:11:00
7:31 PM,50.0,42.8,76,29.79,10.0,West,4.6,-,N/A,,Clear,270,2012-10-20 23:31:00
7:51 PM,49.8,44.4,82,29.79,10.0,Calm,Calm,-,N/A,,Clear,0,2012-10-20 23:51:00
8:11 PM,47.3,43.7,87,29.79,10.0,WSW,4.6,-,N/A,,Clear,250,2012-10-21 00:11:00
8:31 PM,43.3,39.6,87,29.80,10.0,Calm,Calm,-,N/A,,Clear,0,2012-10-21 00:31:00
8:51 PM,42.8,42.1,97,29.80,10.0,West,4.6,-,N/A,,Clear,260,2012-10-21 00:51:00
9:12 PM,44.6,41.7,90,29.81,10.0,WSW,5.8,-,N/A,,Clear,250,2012-10-21 01:12:00
9:32 PM,44.1,41.0,89,29.82,10.0,West,4.6,-,N/A,,Clear,260,2012-10-21 01:32:00
9:52 PM,44.1,41.9,92,29.83,10.0,West,5.8,-,N/A,,Clear,260,2012-10-21 01:52:00
10:12 PM,44.1,43.0,96,29.84,10.0,West,4.6,-,N/A,,Clear,270,2012-10-21 02:12:00
10:32 PM,43.3,42.6,97,29.84,10.0,West,4.6,-,N/A,,Clear,260,2012-10-21 02:32:00
10:52 PM,43.3,43.2,99,29.84,10.0,West,4.6,-,N/A,,Clear,260,2012-10-21 02:52:00
11:12 PM,43.9,43.9,100,29.84,10.0,WSW,3.5,-,N/A,,Mostly Cloudy,250,2012-10-21 03:12:00
11:33 PM,44.8,44.8,100,29.85,7.0,West,3.5,-,N/A,,Overcast,260,2012-10-21 03:33:00
11:53 PM,44.8,44.8,100,29.85,1.0,West,4.6,-,N/A,,Overcast,260,2012-10-21 03:53:00